Location: Fort Worth, Tx
(32.7431°N, 97.3695°W)
Time: 04:20:32
(UTC-05:00)

Altair - Pass Details

Date: 11 October 2023
Orbit: 1501 x 1682 km, 47.2° (Epoch: 06 December)

Event Time Altitude Azimuth Distance (km) Brightness Sun altitude
Rises 04:15:18 0° 285° (WNW) 4,744 - -52.2°
Reaches altitude 10° 04:18:47 10° 294° (WNW) 3,788 - -51.6°
Maximum altitude 04:27:23 34° 357° (N) 2,432 - -50.2°
Exits shadow 04:29:17 32° 18° (NNE) 2,528 8.7 -49.8°
Drops below altitude 10° 04:36:15 10° 60° (ENE) 3,910 10.1 -48.6°
Sets 04:39:55 0° 70° (ENE) 4,914 10.8 -47.9°
